This is the latest recevied weather packets stored in our database for station/object KF6RAL-6. If no packets are shown the sender has not sent any weather packets the latest 10 day(s).
| Time | Temp. | Humidity | Pressure | Rain* | Wind** | Luminosity | Snow |
|---|---|---|---|---|---|---|---|
| 1787978517 | 22.78° C | 62% | 1016.4 hPa | 0 mm | - | - | - |
| 1787978096 | 22.78° C | 59% | 1017 hPa | 0 mm | - | - | - |
| 1787977675 | 22.78° C | 58% | 1016.8 hPa | 0 mm | - | - | - |
| 1787977254 | 23.33° C | 58% | 1016.8 hPa | 0 mm | - | - | - |
| 1787976833 | 23.33° C | 57% | 1016.9 hPa | 0 mm | - | - | - |
| 1787976412 | 22.78° C | 58% | 1017.2 hPa | 0 mm | - | - | - |
| 1787975991 | 22.78° C | 59% | 1017.5 hPa | 0 mm | - | - | - |
| 1787975571 | 22.78° C | 60% | 1016.7 hPa | 0 mm | - | - | - |
| 1787974728 | 22.78° C | 60% | 1016.5 hPa | 0 mm | - | - | - |
| 1787974307 | 22.78° C | 61% | 1016.3 hPa | 0 mm | - | - | - |
| 1787973886 | 22.78° C | 62% | 1016.5 hPa | 0 mm | - | - | - |
| 1787973465 | 22.22° C | 64% | 1016.6 hPa | 0 mm | - | - | - |
| 1787973048 | 22.78° C | 64% | 1016.2 hPa | 0 mm | - | - | - |
| 1787972202 | 23.33° C | 61% | 1016.1 hPa | 0 mm | - | - | - |
| 1787971781 | 23.89° C | 60% | 1016 hPa | 0 mm | - | - | - |
| 1787971361 | 24.44° C | 63% | 1015.8 hPa | 0 mm | - | - | - |
| 1787970518 | 24.44° C | 65% | 1015.3 hPa | 0 mm | - | - | - |
| 1787970097 | 24.44° C | 64% | 1015.4 hPa | 0 mm | - | - | - |
| 1787969675 | 24.44° C | 65% | 1016.4 hPa | 0 mm | - | - | - |
| 1787969255 | 25° C | 65% | 1015.9 hPa | 0 mm | - | - | - |
| 1787968834 | 25° C | 65% | 1015.5 hPa | 0 mm | - | - | - |
| 1787968412 | 25.56° C | 62% | 1014.7 hPa | 0 mm | - | - | - |
| 1787967991 | 26.67° C | 51% | 1014 hPa | 0 mm | - | - | - |
| 1787967570 | 26.67° C | 55% | 1013.5 hPa | 0 mm | - | - | - |
| 1787967149 | 26.11° C | 54% | 1013.5 hPa | 0 mm | - | - | - |
* Rain latest hour (hover to see other rain measurements)
** Current wind speed in m/s (hover to see current wind gust speed)